Year,Month,Day,Hour,Minute,Value (Times are PST for windspeed in km/hr)
2008,02,08,00,00,19.10
2008,02,08,00,01,22.70
2008,02,08,00,02,27.20
2008,02,08,00,03,22.60
2008,02,08,00,04,17.90
2008,02,08,00,05,24.80
2008,02,08,00,06,26.20
2008,02,08,00,07,25.70
2008,02,08,00,08,26.20
2008,02,08,00,09,26.60
2008,02,08,00,10,24.70
2008,02,08,00,11,19.40
2008,02,08,00,12,19.30
2008,02,08,00,13,18.20
2008,02,08,00,14,24.20
2008,02,08,00,15,24.90
2008,02,08,00,16,27.10
2008,02,08,02,02,22.40
2008,02,08,02,03,28.50
2008,02,08,02,04,35.40
2008,02,08,02,05,26.50
2008,02,08,02,06,27.80
2008,02,08,02,07,24.50
2008,02,08,02,08,30.40
2008,02,08,02,09,29.20
2008,02,08,02,10,22.90
2008,02,08,02,11,38.40
2008,02,08,02,12,26.30
2008,02,08,02,13,27.80
2008,02,08,02,14,29.60
2008,02,08,02,15,29.40
2008,02,08,02,16,24.40
2008,02,08,02,17,20.20
2008,02,08,02,18,22.90
2008,02,08,02,19,31.90
2008,02,08,02,20,28.20
2008,02,08,02,21,20.10
2008,02,08,02,22,25.80
2008,02,08,02,23,20.70
2008,02,08,02,24,19.20
2008,02,08,02,25,19.90
2008,02,08,02,26,13.90
2008,02,08,02,27,17.80
2008,02,08,02,28,23.10
2008,02,08,02,29,19.20
2008,02,08,02,30,23.70
2008,02,08,02,31,34.60
2008,02,08,02,32,22.70
2008,02,08,02,33,21.00
2008,02,08,02,34,26.20
2008,02,08,02,35,32.90
2008,02,08,02,36,34.50
2008,02,08,02,37,39.80
2008,02,08,02,38,33.30
2008,02,08,02,39,26.70
2008,02,08,02,40,26.00
2008,02,08,02,41,30.30
2008,02,08,02,42,39.60
2008,02,08,02,43,37.80
2008,02,08,02,44,38.60
2008,02,08,02,45,40.30
2008,02,08,02,46,38.80
2008,02,08,02,47,19.20
2008,02,08,02,48,33.50
2008,02,08,02,49,27.30
2008,02,08,02,50,25.80
2008,02,08,02,51,27.50
2008,02,08,02,52,22.90
2008,02,08,02,53,29.00
2008,02,08,02,54,17.20
2008,02,08,02,55,26.50
2008,02,08,02,56,30.10
2008,02,08,02,57,29.80
2008,02,08,02,58,26.10
2008,02,08,02,59,21.20
2008,02,08,03,00,18.20
2008,02,08,03,01,16.10
2008,02,08,03,02,19.80
2008,02,08,03,03,25.80
2008,02,08,03,04,24.40
2008,02,08,03,05,11.30
2008,02,08,03,06,22.40
2008,02,08,03,07,25.80
2008,02,08,03,08,29.30
2008,02,08,03,09,17.40
2008,02,08,03,10,22.80
2008,02,08,03,11,21.00
2008,02,08,03,12,27.00
2008,02,08,03,13,22.40
2008,02,08,03,14,25.00
2008,02,08,03,15,27.40
2008,02,08,03,16,12.30
2008,02,08,03,17,18.90
2008,02,08,03,18,14.10
2008,02,08,03,19,22.70
2008,02,08,03,20,20.50
2008,02,08,03,21,26.60
2008,02,08,03,22,17.90
2008,02,08,03,23,21.70
2008,02,08,03,24,17.40
2008,02,08,03,25,21.30
2008,02,08,03,26,22.60
2008,02,08,03,27,16.10
2008,02,08,03,28,28.30
2008,02,08,03,29,21.20
2008,02,08,03,30,17.90
2008,02,08,03,31,21.40
2008,02,08,03,32,19.50
2008,02,08,03,33,18.80
2008,02,08,03,34,32.30
2008,02,08,03,35,21.20
2008,02,08,03,36,27.70
2008,02,08,03,37,35.50
2008,02,08,03,38,29.00
2008,02,08,03,39,19.00
2008,02,08,03,40,21.80
2008,02,08,03,41,22.40
2008,02,08,03,42,21.10
2008,02,08,03,43,26.00
2008,02,08,03,44,25.00
2008,02,08,03,45,21.20
2008,02,08,03,46,24.20
2008,02,08,03,47,11.90
2008,02,08,03,48,19.90
2008,02,08,03,49,29.70
2008,02,08,03,50,32.20
2008,02,08,03,51,25.70
2008,02,08,03,52,31.70
2008,02,08,03,53,26.60
2008,02,08,03,54,27.00
2008,02,08,03,55,22.30
2008,02,08,03,56,19.10
2008,02,08,03,57,29.10
2008,02,08,03,58,23.80
2008,02,08,03,59,31.00
2008,02,08,04,00,25.60
2008,02,08,04,01,32.50
2008,02,08,04,02,31.90
2008,02,08,04,03,29.70
2008,02,08,04,04,21.70
2008,02,08,04,05,21.10
2008,02,08,04,06,24.30
2008,02,08,04,07,27.70
2008,02,08,04,08,30.00
2008,02,08,04,09,24.10
2008,02,08,04,10,29.60
2008,02,08,04,11,32.90
2008,02,08,04,12,25.10
2008,02,08,04,13,23.30
2008,02,08,04,14,19.50
2008,02,08,04,15,20.90
2008,02,08,04,16,31.70
2008,02,08,04,17,19.70
2008,02,08,04,18,22.00
2008,02,08,04,19,31.50
2008,02,08,04,20,23.20
2008,02,08,04,21,34.60
2008,02,08,04,22,31.30
2008,02,08,04,23,24.20
2008,02,08,04,24,23.30
2008,02,08,04,25,31.80
2008,02,08,04,26,26.20
2008,02,08,04,27,22.50
2008,02,08,04,28,27.00
2008,02,08,04,29,25.90
2008,02,08,04,30,26.60
2008,02,08,04,31,30.10
2008,02,08,04,32,28.80
2008,02,08,04,33,24.50
2008,02,08,04,34,29.00
2008,02,08,04,35,29.40
2008,02,08,04,36,19.10
2008,02,08,04,37,17.50
2008,02,08,04,38,29.50
2008,02,08,04,39,18.70
2008,02,08,04,40,20.20
2008,02,08,04,41,18.40
2008,02,08,04,42,15.40
2008,02,08,04,43,17.00
2008,02,08,04,44,26.20
2008,02,08,04,45,25.80
2008,02,08,04,46,35.70
2008,02,08,04,47,32.70
2008,02,08,04,48,39.00
2008,02,08,04,49,31.00
2008,02,08,04,50,32.70
2008,02,08,04,51,24.30
2008,02,08,04,52,15.50
2008,02,08,04,53,19.20
2008,02,08,04,54,20.80
2008,02,08,04,55,20.60
2008,02,08,04,56,24.90
2008,02,08,04,57,33.00
2008,02,08,04,58,35.80
2008,02,08,04,59,25.00
2008,02,08,05,00,20.80
2008,02,08,05,01,20.40
2008,02,08,05,02,27.70
2008,02,08,05,03,25.70
2008,02,08,05,04,19.80
2008,02,08,05,05,24.90
2008,02,08,05,06,25.30
2008,02,08,05,07,12.40
2008,02,08,05,08,23.00
2008,02,08,05,09,22.50
2008,02,08,05,10,11.40
2008,02,08,05,11,21.50
2008,02,08,05,12,18.80
2008,02,08,05,13,17.30
2008,02,08,05,14,8.00
2008,02,08,05,15,9.80
2008,02,08,05,16,19.20
2008,02,08,05,17,34.60
2008,02,08,05,18,23.30
2008,02,08,05,19,30.10
2008,02,08,05,20,19.40
2008,02,08,05,21,16.50
2008,02,08,05,22,13.00
2008,02,08,05,23,20.40
2008,02,08,05,24,24.90
2008,02,08,05,25,23.20
2008,02,08,05,26,30.40
2008,02,08,05,27,18.00
2008,02,08,05,28,23.70
2008,02,08,05,29,28.10
2008,02,08,05,30,31.90
2008,02,08,05,31,28.60
2008,02,08,05,32,24.60
2008,02,08,05,33,32.30
2008,02,08,05,34,23.00
2008,02,08,05,35,27.30
2008,02,08,05,36,25.80
2008,02,08,05,37,19.20
2008,02,08,05,38,25.20
2008,02,08,05,39,23.50
2008,02,08,05,40,19.10
2008,02,08,05,41,12.40
2008,02,08,05,42,21.70
2008,02,08,05,43,25.30
2008,02,08,05,44,18.60
2008,02,08,05,45,14.60
2008,02,08,05,46,29.90
2008,02,08,05,47,28.10
2008,02,08,05,48,24.30
2008,02,08,05,49,26.60
2008,02,08,05,50,22.50
2008,02,08,05,51,19.80
2008,02,08,05,52,19.70
2008,02,08,05,53,16.00
2008,02,08,05,54,17.90
2008,02,08,05,55,15.60
2008,02,08,05,56,24.90
2008,02,08,05,57,22.90
2008,02,08,05,58,30.30
2008,02,08,05,59,24.30
2008,02,08,06,00,20.00
2008,02,08,06,01,9.70
2008,02,08,06,02,20.20
2008,02,08,06,03,14.80
2008,02,08,06,04,23.50
2008,02,08,06,05,29.10
2008,02,08,06,06,17.40
2008,02,08,06,07,16.30
2008,02,08,06,08,20.30
2008,02,08,06,09,17.90
2008,02,08,06,10,23.90
2008,02,08,06,11,26.90
2008,02,08,06,12,10.00
2008,02,08,06,13,17.70
2008,02,08,06,14,26.20
2008,02,08,06,15,23.60
2008,02,08,06,16,28.30
2008,02,08,06,17,25.60
2008,02,08,06,18,18.50
2008,02,08,06,19,30.70
2008,02,08,06,20,39.40
2008,02,08,06,21,27.20
2008,02,08,06,22,33.80
2008,02,08,06,23,37.20
2008,02,08,06,24,26.20
2008,02,08,06,25,21.70
2008,02,08,06,26,23.80
2008,02,08,06,27,15.50
2008,02,08,06,28,25.20
2008,02,08,06,29,34.60
2008,02,08,06,30,29.10
2008,02,08,06,31,24.10
2008,02,08,06,32,29.80
2008,02,08,06,33,25.50
2008,02,08,06,34,17.20
2008,02,08,06,35,16.50
2008,02,08,06,36,19.60
2008,02,08,06,37,20.60
2008,02,08,06,38,30.50
2008,02,08,06,39,20.70
2008,02,08,06,40,21.70
2008,02,08,06,41,17.30
2008,02,08,06,42,15.40
2008,02,08,06,43,28.20
2008,02,08,06,44,21.30
2008,02,08,06,45,24.80
2008,02,08,06,46,17.20
2008,02,08,06,47,24.10
2008,02,08,06,48,22.90
2008,02,08,06,49,18.90
2008,02,08,06,50,18.40
2008,02,08,06,51,18.00
2008,02,08,06,52,24.50
2008,02,08,06,53,27.00
2008,02,08,06,54,29.10
2008,02,08,06,55,22.50
2008,02,08,06,56,19.70
2008,02,08,06,57,30.80
2008,02,08,06,58,31.50
2008,02,08,06,59,24.60
2008,02,08,07,00,27.30
2008,02,08,07,01,25.00
2008,02,08,07,02,35.10
2008,02,08,07,03,23.70
2008,02,08,07,04,18.90
2008,02,08,07,05,23.80
2008,02,08,07,06,19.10
2008,02,08,07,07,24.40
2008,02,08,07,08,22.80
2008,02,08,07,09,26.80
2008,02,08,07,10,23.70
2008,02,08,07,11,30.60
2008,02,08,07,12,18.70
2008,02,08,07,13,23.60
2008,02,08,07,14,14.00
2008,02,08,07,15,15.50
2008,02,08,07,16,12.20
2008,02,08,07,17,25.30
2008,02,08,07,18,29.80
2008,02,08,07,19,22.00
2008,02,08,07,20,16.40
2008,02,08,07,21,20.60
2008,02,08,07,22,24.00
2008,02,08,07,23,20.60
2008,02,08,07,24,16.90
2008,02,08,07,25,25.70
2008,02,08,07,26,33.10
2008,02,08,07,27,25.70
2008,02,08,07,28,21.30
2008,02,08,07,29,20.50
2008,02,08,07,30,31.30
2008,02,08,07,31,32.30
2008,02,08,07,32,12.50
2008,02,08,07,33,20.20
2008,02,08,07,34,24.70
2008,02,08,07,35,23.00
2008,02,08,07,36,22.00
2008,02,08,07,37,18.50
2008,02,08,07,38,18.60
2008,02,08,07,39,22.20
2008,02,08,07,40,29.10
2008,02,08,07,41,21.90
2008,02,08,07,42,21.00
2008,02,08,07,43,26.70
2008,02,08,07,44,24.10
2008,02,08,07,45,22.10
2008,02,08,07,46,27.70
2008,02,08,07,47,24.90
2008,02,08,07,48,29.10
2008,02,08,07,49,25.10
2008,02,08,07,50,31.90
2008,02,08,07,51,24.40
2008,02,08,07,52,29.70
2008,02,08,07,53,25.50
2008,02,08,07,54,18.10
2008,02,08,07,55,18.60
2008,02,08,07,56,22.00
2008,02,08,07,57,28.40
2008,02,08,07,58,26.40
2008,02,08,07,59,27.60
2008,02,08,08,00,20.00
2008,02,08,08,01,17.30
2008,02,08,08,02,27.00
2008,02,08,08,03,19.80
2008,02,08,08,04,18.30
2008,02,08,08,05,24.50
2008,02,08,08,06,20.10
2008,02,08,08,07,16.80
2008,02,08,08,08,22.40
2008,02,08,08,09,28.70
2008,02,08,08,10,18.30
2008,02,08,08,11,20.50
2008,02,08,08,12,16.80
2008,02,08,08,13,25.80
2008,02,08,08,14,26.20
2008,02,08,08,15,24.40
2008,02,08,08,16,36.20
2008,02,08,08,17,23.10
2008,02,08,08,18,21.50
2008,02,08,08,19,14.80
2008,02,08,08,20,19.40
2008,02,08,08,21,18.30
2008,02,08,08,22,23.10
2008,02,08,08,23,23.70
2008,02,08,08,24,22.40
2008,02,08,08,25,19.60
2008,02,08,08,26,11.90
2008,02,08,08,27,16.00
2008,02,08,08,28,23.70
2008,02,08,08,29,26.20
2008,02,08,08,30,14.00
2008,02,08,08,31,11.80
2008,02,08,08,32,16.30
2008,02,08,08,33,19.80
2008,02,08,08,34,23.80
2008,02,08,08,35,18.30
2008,02,08,08,36,11.80
2008,02,08,08,37,15.30
2008,02,08,08,38,24.30
2008,02,08,08,39,23.70
2008,02,08,08,40,27.00
2008,02,08,08,41,25.80
2008,02,08,08,42,14.60
2008,02,08,08,43,24.20
2008,02,08,08,44,17.80
2008,02,08,08,45,14.90
2008,02,08,08,46,24.40
2008,02,08,08,47,12.60
2008,02,08,08,48,24.80
2008,02,08,08,49,18.30
2008,02,08,08,50,22.40
2008,02,08,08,51,22.80
2008,02,08,08,52,16.30
2008,02,08,08,53,18.40
2008,02,08,08,54,17.10
2008,02,08,08,55,20.80
2008,02,08,08,56,30.40
2008,02,08,08,57,32.90
2008,02,08,08,58,33.20
2008,02,08,08,59,25.30
2008,02,08,09,00,19.10
2008,02,08,09,01,27.60
2008,02,08,09,02,28.90
2008,02,08,09,03,31.40
2008,02,08,09,04,26.50
2008,02,08,09,05,16.90
2008,02,08,09,06,20.30
2008,02,08,09,07,18.20
2008,02,08,09,08,21.50
2008,02,08,09,09,23.30
2008,02,08,09,10,23.20
2008,02,08,09,11,23.80
2008,02,08,09,12,18.60
2008,02,08,09,13,16.10
2008,02,08,09,14,14.70
2008,02,08,09,15,17.90
2008,02,08,09,16,23.90
2008,02,08,09,17,15.60
2008,02,08,09,18,18.20
2008,02,08,09,19,22.50
2008,02,08,09,20,12.20
2008,02,08,09,21,12.20
2008,02,08,09,22,17.10
2008,02,08,09,23,15.40
2008,02,08,09,24,15.60
2008,02,08,09,25,16.90
2008,02,08,09,26,18.50
2008,02,08,09,27,13.20
2008,02,08,09,28,16.20
2008,02,08,09,29,21.50
2008,02,08,09,30,21.00
2008,02,08,09,31,18.10
2008,02,08,09,32,23.70
2008,02,08,09,33,18.80
2008,02,08,09,34,12.60
2008,02,08,09,35,16.70
2008,02,08,09,36,20.70
2008,02,08,09,37,22.50
2008,02,08,09,38,22.40
2008,02,08,09,39,17.50
2008,02,08,09,40,18.60
2008,02,08,09,41,16.30
2008,02,08,09,42,15.50
2008,02,08,09,43,21.50
2008,02,08,09,44,13.80
2008,02,08,09,45,19.30
2008,02,08,09,46,18.50
2008,02,08,09,47,15.00
2008,02,08,09,48,16.70
2008,02,08,09,49,25.90
2008,02,08,09,50,12.30
2008,02,08,09,51,17.60
2008,02,08,09,52,15.10
2008,02,08,09,53,21.30
2008,02,08,09,54,8.30
2008,02,08,09,55,10.90
2008,02,08,09,56,19.20
2008,02,08,09,57,15.40
2008,02,08,09,58,16.70
2008,02,08,09,59,16.90
2008,02,08,10,00,14.00
2008,02,08,10,01,11.70
2008,02,08,10,02,15.60
2008,02,08,10,03,20.50
2008,02,08,10,04,17.70
2008,02,08,10,05,24.70
2008,02,08,10,06,17.90
2008,02,08,10,07,18.30
2008,02,08,10,08,17.70
2008,02,08,10,09,19.80
2008,02,08,10,10,21.10
2008,02,08,10,11,21.60
2008,02,08,10,12,24.50
2008,02,08,10,13,22.20
2008,02,08,10,14,19.60
2008,02,08,10,15,21.60
2008,02,08,10,16,24.00
2008,02,08,10,17,21.20
2008,02,08,10,18,18.40
2008,02,08,10,19,21.60
2008,02,08,10,20,24.10
2008,02,08,10,21,20.40
2008,02,08,10,22,21.40
2008,02,08,10,23,22.50
2008,02,08,10,24,20.10
2008,02,08,10,25,21.40
2008,02,08,10,26,21.20
2008,02,08,10,27,12.60
2008,02,08,10,28,22.50
2008,02,08,10,29,18.50
2008,02,08,10,30,27.30
2008,02,08,10,31,16.50
2008,02,08,10,32,18.30
2008,02,08,10,33,19.10
2008,02,08,10,34,17.20
2008,02,08,10,35,14.10
2008,02,08,10,36,26.40
2008,02,08,10,37,17.40
2008,02,08,10,38,26.60
2008,02,08,10,39,24.20
2008,02,08,10,40,12.70
2008,02,08,10,41,17.30
2008,02,08,10,42,24.70
2008,02,08,10,43,32.10
2008,02,08,10,44,13.60
2008,02,08,10,45,16.90
2008,02,08,10,46,20.70
2008,02,08,10,47,20.30
2008,02,08,10,48,17.40
2008,02,08,10,49,17.80
2008,02,08,10,50,19.00
2008,02,08,10,51,21.70
2008,02,08,10,52,15.10
2008,02,08,10,53,15.60
2008,02,08,10,54,20.00
2008,02,08,10,55,18.30
2008,02,08,10,56,10.40
2008,02,08,10,57,10.00
2008,02,08,10,58,16.40
2008,02,08,10,59,16.40
2008,02,08,11,00,12.40
2008,02,08,11,01,10.90
2008,02,08,11,02,15.50
2008,02,08,11,03,20.10
2008,02,08,11,04,12.90
2008,02,08,11,05,9.20
2008,02,08,11,06,10.10
2008,02,08,11,07,22.70
2008,02,08,11,08,15.70
2008,02,08,11,09,13.10
2008,02,08,11,10,11.60
2008,02,08,11,11,12.30
2008,02,08,11,12,11.50
2008,02,08,11,13,11.80
2008,02,08,11,14,11.30
2008,02,08,11,15,12.10
2008,02,08,11,16,11.90
2008,02,08,11,17,13.10
2008,02,08,11,18,11.10
2008,02,08,11,19,7.20
2008,02,08,11,20,18.30
2008,02,08,11,21,16.80
2008,02,08,11,22,10.10
2008,02,08,11,23,18.50
2008,02,08,11,24,20.40
2008,02,08,11,25,17.50
2008,02,08,11,26,16.70
2008,02,08,11,27,19.40
2008,02,08,11,28,10.00
2008,02,08,11,29,16.50
2008,02,08,11,30,15.30
2008,02,08,11,31,23.20
2008,02,08,11,32,12.50
2008,02,08,11,33,14.60
2008,02,08,11,34,17.10
2008,02,08,11,35,15.60
2008,02,08,11,36,16.00
2008,02,08,11,37,20.60
2008,02,08,11,38,9.60
2008,02,08,11,39,13.20
2008,02,08,11,40,25.10
2008,02,08,11,41,18.60
2008,02,08,11,42,13.60
2008,02,08,11,43,14.60
2008,02,08,11,44,11.30
2008,02,08,11,45,21.10
2008,02,08,11,46,15.70
2008,02,08,11,47,21.10
2008,02,08,11,48,10.60
2008,02,08,11,49,8.00
2008,02,08,11,50,9.10
2008,02,08,11,51,14.10
2008,02,08,11,52,13.00
2008,02,08,11,53,7.30
2008,02,08,11,54,7.90
2008,02,08,11,55,11.80
2008,02,08,11,56,8.70
2008,02,08,11,57,9.90
2008,02,08,11,58,13.80
2008,02,08,11,59,14.60
2008,02,08,12,00,10.00
2008,02,08,12,01,15.00
2008,02,08,12,02,17.90
2008,02,08,12,03,13.00
2008,02,08,12,04,11.70
2008,02,08,12,05,4.50
2008,02,08,12,06,7.70
2008,02,08,12,07,9.60
2008,02,08,12,08,18.90
2008,02,08,12,09,16.40
2008,02,08,12,10,15.60
2008,02,08,12,11,20.60
2008,02,08,12,12,16.80
2008,02,08,12,13,20.00
2008,02,08,12,14,6.90
2008,02,08,12,15,13.70
2008,02,08,12,16,9.70
2008,02,08,12,17,11.40
2008,02,08,12,18,16.50
2008,02,08,12,19,8.30
2008,02,08,12,20,19.80
2008,02,08,12,21,13.00
2008,02,08,12,22,12.20
2008,02,08,12,23,16.40
2008,02,08,12,24,19.00
2008,02,08,12,25,15.80
2008,02,08,12,26,17.50
2008,02,08,12,27,14.50
2008,02,08,12,28,12.20
2008,02,08,12,29,18.40
2008,02,08,12,30,8.60
2008,02,08,12,31,8.00
2008,02,08,12,32,9.30
2008,02,08,12,33,10.00
2008,02,08,12,34,7.20
2008,02,08,12,35,6.90
2008,02,08,12,36,19.10
2008,02,08,12,37,14.70
2008,02,08,12,38,15.90
2008,02,08,12,39,15.10
2008,02,08,12,40,10.30
2008,02,08,12,41,10.70
2008,02,08,12,42,9.20
2008,02,08,12,43,10.50
2008,02,08,12,44,18.30
2008,02,08,12,45,11.10
2008,02,08,12,46,12.20
2008,02,08,12,47,12.50
2008,02,08,12,48,14.30
2008,02,08,12,49,13.40
2008,02,08,12,50,7.50
2008,02,08,12,51,8.10
2008,02,08,12,52,6.70
2008,02,08,12,53,9.10
2008,02,08,12,54,7.90
2008,02,08,12,55,13.30
2008,02,08,12,56,8.70
2008,02,08,12,57,11.90
2008,02,08,12,58,9.60
2008,02,08,12,59,5.60
2008,02,08,13,00,10.60
2008,02,08,13,01,9.00
2008,02,08,13,02,5.20
2008,02,08,13,03,5.40
2008,02,08,13,04,5.50
2008,02,08,13,05,7.50
2008,02,08,13,06,15.20
2008,02,08,13,07,14.60
2008,02,08,13,08,15.40
2008,02,08,13,09,10.80
2008,02,08,13,10,11.20
2008,02,08,13,11,9.20
2008,02,08,13,12,7.50
2008,02,08,13,13,10.20
2008,02,08,13,14,7.80
2008,02,08,13,15,9.10
2008,02,08,13,16,17.20
2008,02,08,13,17,12.50
2008,02,08,13,18,17.40
2008,02,08,13,19,15.60
2008,02,08,13,20,11.70
2008,02,08,13,21,12.20
2008,02,08,13,22,10.10
2008,02,08,13,23,10.50
2008,02,08,13,24,11.80
2008,02,08,13,25,6.40
2008,02,08,13,26,3.30
2008,02,08,13,27,6.20
2008,02,08,13,28,14.40
2008,02,08,13,29,18.50
2008,02,08,13,30,14.70
2008,02,08,13,31,10.80
2008,02,08,13,32,12.50
2008,02,08,13,33,12.20
2008,02,08,13,34,14.90
2008,02,08,13,35,12.70
2008,02,08,13,36,8.90
2008,02,08,13,37,11.90
2008,02,08,13,38,10.70
2008,02,08,13,39,8.10
2008,02,08,13,40,11.30
2008,02,08,13,41,11.80
2008,02,08,13,42,10.90
2008,02,08,13,43,14.40
2008,02,08,13,44,14.50
2008,02,08,13,45,10.90
2008,02,08,13,46,5.80
2008,02,08,13,47,10.90
2008,02,08,13,48,14.50
2008,02,08,13,49,10.40
2008,02,08,13,50,13.70
2008,02,08,13,51,16.40
2008,02,08,13,52,20.20
2008,02,08,13,53,10.10
2008,02,08,13,54,11.70
2008,02,08,13,55,20.80
2008,02,08,13,56,3.60
2008,02,08,13,57,9.50
2008,02,08,13,58,10.80
2008,02,08,13,59,12.70
2008,02,08,14,00,9.00
2008,02,08,14,01,8.00
2008,02,08,14,02,12.30
2008,02,08,14,03,10.40
2008,02,08,14,04,11.10
2008,02,08,14,05,10.30
2008,02,08,14,06,9.80
2008,02,08,14,07,19.00
2008,02,08,14,08,11.90
2008,02,08,14,09,5.80
2008,02,08,14,10,5.20
2008,02,08,14,11,11.70
2008,02,08,14,12,7.70
2008,02,08,14,13,7.10
2008,02,08,14,14,4.60
2008,02,08,14,15,17.20
2008,02,08,14,16,16.20
2008,02,08,14,17,20.20
2008,02,08,14,18,10.90
2008,02,08,14,19,11.00
2008,02,08,14,20,11.80
2008,02,08,14,21,5.80
2008,02,08,14,22,14.00
2008,02,08,14,23,8.30
2008,02,08,14,24,18.30
2008,02,08,14,25,11.20
2008,02,08,14,26,11.90
2008,02,08,14,27,10.00
2008,02,08,14,28,13.90
2008,02,08,14,29,8.90
2008,02,08,14,30,8.80
2008,02,08,14,31,7.60
2008,02,08,14,32,14.10
2008,02,08,14,33,11.00
2008,02,08,14,34,12.80
2008,02,08,14,35,8.20
2008,02,08,14,36,4.60
2008,02,08,14,37,10.60
2008,02,08,14,38,4.20
2008,02,08,14,39,4.70
2008,02,08,14,40,7.30
2008,02,08,14,41,11.10
2008,02,08,14,42,4.50
2008,02,08,14,43,8.20
2008,02,08,14,44,8.90
2008,02,08,14,45,10.80
2008,02,08,14,46,8.50
2008,02,08,14,47,6.00
2008,02,08,14,48,8.40
2008,02,08,14,49,7.40
2008,02,08,14,50,6.30
2008,02,08,14,51,6.00
2008,02,08,14,52,5.40
2008,02,08,14,53,5.90
2008,02,08,14,54,3.00
2008,02,08,14,55,3.20
2008,02,08,14,56,4.40
2008,02,08,14,57,9.30
2008,02,08,14,58,10.90
2008,02,08,14,59,7.00
2008,02,08,15,00,5.00
2008,02,08,15,01,11.00
2008,02,08,15,02,9.20
2008,02,08,15,03,10.90
2008,02,08,15,04,9.70
2008,02,08,15,05,7.50
2008,02,08,15,06,7.90
2008,02,08,15,07,9.50
2008,02,08,15,08,12.50
2008,02,08,15,09,8.10
2008,02,08,15,10,4.90
2008,02,08,15,11,11.70
2008,02,08,15,12,8.50
2008,02,08,15,13,4.70
2008,02,08,15,14,11.00
2008,02,08,15,15,12.60
2008,02,08,15,16,6.10
2008,02,08,15,17,5.70
2008,02,08,15,18,9.60
2008,02,08,15,19,7.60
2008,02,08,15,20,7.50
2008,02,08,15,21,5.80
2008,02,08,15,22,9.90
2008,02,08,15,23,5.60
2008,02,08,15,24,4.80
2008,02,08,15,25,2.10
2008,02,08,15,26,14.20
2008,02,08,15,27,10.50
2008,02,08,15,28,9.50
2008,02,08,15,29,6.00
2008,02,08,15,30,9.00
2008,02,08,15,31,9.80
2008,02,08,15,32,10.30
2008,02,08,15,33,6.30
2008,02,08,15,34,6.40
2008,02,08,15,35,11.30
2008,02,08,15,36,8.80
2008,02,08,15,37,11.80
2008,02,08,15,38,6.70
2008,02,08,15,39,9.80
2008,02,08,15,40,7.60
2008,02,08,15,41,7.80
2008,02,08,15,42,5.60
2008,02,08,15,43,9.90
2008,02,08,15,44,4.50
2008,02,08,15,45,5.50
2008,02,08,15,46,6.80
2008,02,08,15,47,5.90
2008,02,08,15,48,6.30
2008,02,08,15,49,7.90
2008,02,08,15,50,5.90
2008,02,08,15,51,7.50
2008,02,08,15,52,5.40
2008,02,08,15,53,8.40
2008,02,08,15,54,8.10
2008,02,08,15,55,7.30
2008,02,08,15,56,8.30
2008,02,08,15,57,7.70
2008,02,08,15,58,7.00
2008,02,08,15,59,7.10
2008,02,08,16,00,6.50
2008,02,08,16,01,5.30
2008,02,08,16,02,6.10
2008,02,08,16,03,5.90
2008,02,08,16,04,6.40
2008,02,08,16,05,3.90
2008,02,08,16,06,4.60
2008,02,08,16,07,5.10
2008,02,08,16,08,4.40
2008,02,08,16,09,8.60
2008,02,08,16,10,8.10
2008,02,08,16,11,5.60
2008,02,08,16,12,7.70
2008,02,08,16,13,6.50
2008,02,08,16,14,6.80
2008,02,08,16,15,7.00
2008,02,08,16,16,8.60
2008,02,08,16,17,10.70
2008,02,08,16,18,7.60
2008,02,08,16,19,4.40
2008,02,08,16,20,10.40
2008,02,08,16,21,7.70
2008,02,08,16,22,7.30
2008,02,08,16,23,11.00
2008,02,08,16,24,4.60
2008,02,08,16,25,9.50
2008,02,08,16,26,5.30
2008,02,08,16,27,5.60
2008,02,08,16,28,9.10
2008,02,08,16,29,2.50
2008,02,08,16,30,8.50
2008,02,08,16,31,9.70
2008,02,08,16,32,5.70
2008,02,08,16,33,4.50
2008,02,08,16,34,6.60
2008,02,08,16,35,5.60
2008,02,08,16,36,3.60
2008,02,08,16,37,5.20
2008,02,08,16,38,4.40
2008,02,08,16,39,4.50
2008,02,08,16,40,6.00
2008,02,08,16,41,6.40
2008,02,08,16,42,6.10
2008,02,08,16,43,8.40
2008,02,08,16,44,3.00
2008,02,08,16,45,0.40
2008,02,08,16,46,2.10
2008,02,08,16,47,4.60
2008,02,08,16,48,2.40
2008,02,08,16,49,3.90
2008,02,08,16,50,0.20
2008,02,08,16,51,1.60
2008,02,08,16,52,4.30
2008,02,08,16,53,4.10
2008,02,08,16,54,3.30
2008,02,08,16,55,2.60
2008,02,08,16,56,1.20
2008,02,08,16,57,0.00
2008,02,08,16,58,3.70
2008,02,08,16,59,2.00
2008,02,08,17,00,3.40
2008,02,08,17,01,3.90
2008,02,08,17,02,3.50
2008,02,08,17,03,4.10
2008,02,08,17,04,5.00
2008,02,08,17,05,6.00
2008,02,08,17,06,0.70
2008,02,08,17,07,2.70
2008,02,08,17,08,0.60
2008,02,08,17,09,0.20
2008,02,08,17,10,0.80
2008,02,08,17,11,2.00
2008,02,08,17,12,4.00
2008,02,08,17,13,2.90
2008,02,08,17,14,0.30
2008,02,08,17,15,1.20
2008,02,08,17,16,1.50
2008,02,08,17,17,0.00
2008,02,08,17,18,0.20
2008,02,08,17,19,0.00
2008,02,08,17,20,1.90
2008,02,08,17,21,3.30
2008,02,08,17,22,1.60
2008,02,08,17,23,0.20
2008,02,08,17,24,1.00
2008,02,08,17,25,1.10
2008,02,08,17,26,0.10
2008,02,08,17,27,0.00
2008,02,08,17,28,0.40
2008,02,08,17,29,2.60
2008,02,08,17,30,3.30
2008,02,08,17,31,0.20
2008,02,08,17,32,0.80
2008,02,08,17,33,2.90
2008,02,08,17,34,3.40
2008,02,08,17,35,3.40
2008,02,08,17,36,3.20
2008,02,08,17,37,3.00
2008,02,08,17,38,0.50
2008,02,08,17,39,1.60
2008,02,08,17,40,1.90
2008,02,08,17,41,3.20
2008,02,08,17,42,3.90
2008,02,08,17,43,2.70
2008,02,08,17,44,4.30
2008,02,08,17,45,3.00
2008,02,08,17,46,4.00
2008,02,08,17,47,3.90
2008,02,08,17,48,3.60
2008,02,08,17,49,3.50
2008,02,08,17,50,2.90
2008,02,08,17,51,3.20
2008,02,08,17,52,0.90
2008,02,08,17,53,1.40
2008,02,08,17,54,2.90
2008,02,08,17,55,3.30
2008,02,08,17,56,1.80
2008,02,08,17,57,4.10
2008,02,08,17,58,1.50
2008,02,08,17,59,3.10
2008,02,08,18,00,1.90
2008,02,08,18,01,0.90
2008,02,08,18,02,0.30
2008,02,08,18,03,2.30
2008,02,08,18,04,2.00
2008,02,08,18,05,2.00
2008,02,08,18,06,2.30
2008,02,08,18,07,1.70
2008,02,08,18,08,0.30
2008,02,08,18,09,0.20
2008,02,08,18,10,0.50
2008,02,08,18,11,0.00
2008,02,08,18,12,0.00
2008,02,08,18,13,0.60
2008,02,08,18,14,2.10
2008,02,08,18,15,0.30
2008,02,08,18,16,0.80
2008,02,08,18,17,0.20
2008,02,08,18,18,0.10
2008,02,08,18,19,0.00
2008,02,08,18,20,0.00
2008,02,08,18,21,0.80
2008,02,08,18,22,0.00
2008,02,08,18,23,0.00
2008,02,08,18,24,0.00
2008,02,08,18,25,0.00
2008,02,08,18,26,1.00
2008,02,08,18,27,0.00
2008,02,08,18,28,0.20
2008,02,08,18,29,1.40
2008,02,08,18,30,0.90
2008,02,08,18,31,1.30
2008,02,08,18,32,2.20
2008,02,08,18,33,0.00
2008,02,08,18,34,0.00
2008,02,08,18,35,2.30
2008,02,08,18,36,0.00
2008,02,08,18,37,1.10
2008,02,08,18,38,0.00
2008,02,08,18,39,0.00
2008,02,08,18,40,0.00
2008,02,08,18,41,0.00
2008,02,08,18,42,0.50
2008,02,08,18,43,2.00
2008,02,08,18,44,2.30
2008,02,08,18,45,0.40
2008,02,08,18,46,0.00
2008,02,08,18,47,0.00
2008,02,08,18,48,0.90
2008,02,08,18,49,2.00
2008,02,08,18,50,1.00
2008,02,08,18,51,1.30
2008,02,08,18,52,1.40
2008,02,08,18,53,3.60
2008,02,08,18,54,0.20
2008,02,08,18,55,0.00
2008,02,08,18,56,0.00
2008,02,08,18,57,0.00
2008,02,08,18,58,0.00
2008,02,08,18,59,0.00
2008,02,08,19,00,0.00
2008,02,08,19,01,0.20
2008,02,08,19,02,0.00
2008,02,08,19,03,0.60
2008,02,08,19,04,0.00
2008,02,08,19,05,0.00
2008,02,08,19,06,0.00
2008,02,08,19,07,0.00
2008,02,08,19,08,0.00
2008,02,08,19,09,1.70
2008,02,08,19,10,1.30
2008,02,08,19,11,0.00
2008,02,08,19,12,0.00
2008,02,08,19,13,0.00
2008,02,08,19,14,0.00
2008,02,08,19,15,0.00
2008,02,08,19,16,0.00
2008,02,08,19,17,0.00
2008,02,08,19,18,0.00